Weather History for KFYG - February, 2014

Change the Weather History Date:

Tuesday, February 18, 2014

  Actual Average (KSTL) Record (KSTL)
Temperature  
Mean Temperature 44 °F 37 °F  
Max Temperature 62 °F 46 °F 74 °F (1971)
Min Temperature 26 °F 28 °F -9 °F (1936)
Degree Days  
Heating Degree Days 21 28  
Month to date heating degree days 543  
Since 1 July heating degree days 3337  
Cooling Degree Days 0 0  
Month to date cooling degree days 0  
Year to date cooling degree days 0  
Moisture  
Dew Point 28 °F    
Average Humidity 59    
Maximum Humidity 100    
Minimum Humidity 27    
Precipitation  
Precipitation 0.00 in 0.08 in 2.24 in (2000)
Month to date precipitation 1.44  
Year to date precipitation 3.84  
Snow  
Snow 0.00 in 0.20 in 1.70 in (1934)
Month to date snowfall 2.9  
Since 1 July snowfall 13.6  
Snow Depth -    
Sea Level Pressure  
Sea Level Pressure 29.89 in    
Wind  
Wind Speed 4 mph (South)    
Max Wind Speed 23 mph    
Max Gust Speed 33 mph    
Visibility 10 miles    
Events      
T = Trace of Precipitation, MM = Missing Value Source: NWS Daily Summary

Daily Weather History Graph

Daily Weather History Graph

Search for Another Location

Airport or City:

Trip Planner

Search our weather history database for the weather conditions in past years. The results will help you decide how hot, cold, wet, or windy it might be!

Date:

Astronomy

Feb. 18, 2014 Rise Set
Actual Time 6:51 AM CST 5:45 PM CST
Civil Twilight 6:24 AM CST 6:12 PM CST
Nautical Twilight 5:53 AM CST 6:43 PM CST
Astronomical Twilight 5:22 AM CST 7:14 PM CST
Moon 9:35 PM CST (2/18) 8:26 AM CST (2/18)
Length of Visible Light 11h 48m
Length of Day
10h 54m
Waning Gibbous, 87% of the Moon is Illuminated
Feb 18
Waning Gibbous
Feb 22
Last Quarter
Mar 1
New
Mar 8
First Quarter
Mar 16
Full

Hourly Weather History & Observations

Time (CST) Temp. Windchill Dew Point Humidity Pressure Visibility Wind Dir Wind Speed Gust Speed Precip Events Conditions
12:15 AM 37.4 °F - 26.6 °F 65% 30.03 in 10.0 mi Calm Calm - N/A   Clear
12:55 AM 37.4 °F - 24.8 °F 60% 30.03 in 10.0 mi Calm Calm - N/A   Clear
1:15 AM 32.0 °F - 28.4 °F 87% 30.03 in 10.0 mi Calm Calm - N/A   Clear
1:35 AM 30.2 °F - 28.4 °F 93% 30.04 in 10.0 mi Calm Calm - N/A   Clear
1:55 AM 30.2 °F - 28.4 °F 93% 30.04 in 10.0 mi Calm Calm - N/A   Clear
2:15 AM 28.4 °F - 28.4 °F 100% 30.04 in 10.0 mi Calm Calm - N/A   Clear
2:35 AM 30.2 °F - 28.4 °F 93% 30.04 in 10.0 mi Calm Calm - N/A   Clear
2:55 AM 30.2 °F - 28.4 °F 93% 30.04 in 10.0 mi Calm Calm - N/A   Clear
3:15 AM 28.4 °F - 26.6 °F 93% 30.03 in 10.0 mi Calm Calm - N/A   Clear
3:35 AM 28.4 °F - 28.4 °F 100% 30.02 in 10.0 mi Calm Calm - N/A   Clear
3:55 AM 28.4 °F - 28.4 °F 100% 30.03 in 10.0 mi Calm Calm - N/A   Clear
4:15 AM 28.4 °F - 28.4 °F 100% 30.03 in 10.0 mi Calm Calm - N/A   Clear
4:35 AM 28.4 °F - 28.4 °F 100% 30.03 in 10.0 mi Calm Calm - N/A   Clear
4:55 AM 28.4 °F - 28.4 °F 100% 30.02 in 10.0 mi Calm Calm - N/A   Clear
5:15 AM 28.4 °F - 28.4 °F 100% 30.01 in 10.0 mi Calm Calm - N/A   Clear
5:35 AM 28.4 °F - 28.4 °F 100% 30.00 in 10.0 mi Calm Calm - N/A   Clear
5:55 AM 28.4 °F - 28.4 °F 100% 30.00 in 10.0 mi Calm Calm - N/A   Clear
6:15 AM 26.6 °F - 26.6 °F 100% 29.99 in 10.0 mi Calm Calm - N/A   Mostly Cloudy
6:35 AM 26.6 °F - 26.6 °F 100% 29.99 in 10.0 mi Calm Calm - N/A   Scattered Clouds
6:55 AM 26.6 °F - 26.6 °F 100% 29.98 in 10.0 mi Calm Calm - N/A   Clear
7:15 AM 28.4 °F 23.3 °F 28.4 °F 100% 29.97 in 10.0 mi SE 4.6 mph - N/A   Clear
7:35 AM 28.4 °F - 26.6 °F 93% 29.97 in 10.0 mi Calm Calm - N/A   Clear
7:55 AM 32.0 °F - 28.4 °F 87% 29.97 in 10.0 mi Calm Calm - N/A   Clear
8:15 AM 32.0 °F 28.7 °F 28.4 °F 87% 29.98 in 10.0 mi SSE 3.5 mph - N/A   Clear
8:35 AM 37.4 °F 32.1 °F 28.4 °F 70% 29.97 in 10.0 mi SE 6.9 mph - N/A   Clear
8:55 AM 42.8 °F 38.6 °F 26.6 °F 53% 29.97 in 10.0 mi SE 6.9 mph - N/A   Clear
9:15 AM 44.6 °F 40.7 °F 28.4 °F 53% 29.96 in 10.0 mi SE 6.9 mph - N/A   Clear
9:35 AM 46.4 °F 43.5 °F 28.4 °F 50% 29.96 in 10.0 mi SE 5.8 mph - N/A   Clear
9:55 AM 48.2 °F - 28.4 °F 46% 29.95 in 10.0 mi SE 9.2 mph - N/A   Clear
10:15 AM 50.0 °F - 28.4 °F 43% 29.93 in 10.0 mi SE 10.4 mph - N/A   Clear
10:35 AM 55.4 °F - 28.4 °F 36% 29.94 in 10.0 mi South 11.5 mph 17.3 mph N/A   Clear
10:55 AM 55.4 °F - 24.8 °F 31% 29.92 in 10.0 mi South 23.0 mph 28.8 mph N/A   Clear
11:15 AM 55.4 °F - 26.6 °F 33% 29.91 in 10.0 mi South 17.3 mph 21.9 mph N/A   Clear
11:55 AM 57.2 °F - 23.0 °F 27% 29.89 in 10.0 mi South 18.4 mph 32.2 mph N/A   Clear
12:15 PM 57.2 °F - 26.6 °F 31% 29.88 in 10.0 mi South 15.0 mph - N/A   Clear
12:35 PM 57.2 °F - 26.6 °F 31% 29.86 in 10.0 mi SSW 13.8 mph 20.7 mph N/A   Clear
12:55 PM 59.0 °F - 26.6 °F 29% 29.84 in 10.0 mi South 18.4 mph 24.2 mph N/A   Clear
1:15 PM 59.0 °F - 26.6 °F 29% 29.83 in 10.0 mi SSW 18.4 mph 24.2 mph N/A   Clear
1:55 PM 59.0 °F - 26.6 °F 29% 29.77 in 10.0 mi SSW 19.6 mph 33.4 mph N/A   Clear
2:15 PM 60.8 °F - 28.4 °F 29% 29.77 in 10.0 mi SSW 23.0 mph 28.8 mph N/A   Clear
2:35 PM 60.8 °F - 30.2 °F 31% 29.76 in 10.0 mi SSW 17.3 mph 25.3 mph N/A   Clear
2:55 PM 62.6 °F - 28.4 °F 27% 29.76 in 10.0 mi SSW 18.4 mph 26.5 mph N/A   Clear
3:15 PM 60.8 °F - 30.2 °F 31% 29.76 in 10.0 mi SSW 15.0 mph 23.0 mph N/A   Clear
3:35 PM 60.8 °F - 30.2 °F 31% 29.76 in 10.0 mi SW 15.0 mph - N/A   Clear
3:55 PM 60.8 °F - 30.2 °F 31% 29.75 in 10.0 mi SSW 9.2 mph 20.7 mph N/A   Clear
4:15 PM 60.8 °F - 32.0 °F 34% 29.74 in 10.0 mi SSW 18.4 mph 24.2 mph N/A   Clear
4:35 PM 59.0 °F - 32.0 °F 36% 29.74 in 10.0 mi South 10.4 mph 18.4 mph N/A   Clear
4:55 PM 59.0 °F - 32.0 °F 36% 29.74 in 10.0 mi SSW 8.1 mph - N/A   Clear
5:15 PM 59.0 °F - 30.2 °F 34% 29.75 in 10.0 mi SSW 8.1 mph - N/A   Clear
5:35 PM 57.2 °F - 28.4 °F 33% 29.76 in 10.0 mi SSW 6.9 mph - N/A   Clear
5:55 PM 57.2 °F - 28.4 °F 33% 29.76 in 10.0 mi SSW 5.8 mph - N/A   Clear
6:15 PM 55.4 °F - 28.4 °F 36% 29.76 in 10.0 mi South 5.8 mph - N/A   Clear
6:35 PM 53.6 °F - 28.4 °F 38% 29.76 in 10.0 mi SSE 6.9 mph - N/A   Clear
6:55 PM 55.4 °F - 28.4 °F 36% 29.77 in 10.0 mi SSE 4.6 mph - N/A   Clear
7:15 PM 55.4 °F - 28.4 °F 36% 29.77 in 10.0 mi SE 3.5 mph - N/A   Clear
7:35 PM 53.6 °F - 28.4 °F 38% 29.77 in 10.0 mi SE 3.5 mph - N/A   Clear
7:55 PM 53.6 °F - 28.4 °F 38% 29.77 in 10.0 mi SE 5.8 mph - N/A   Clear
8:15 PM 55.4 °F - 28.4 °F 36% 29.77 in 10.0 mi SE 4.6 mph - N/A   Clear
8:35 PM 53.6 °F - 28.4 °F 38% 29.77 in 10.0 mi South 3.5 mph - N/A   Partly Cloudy
8:55 PM 50.0 °F - 30.2 °F 47% 29.77 in 10.0 mi Calm Calm - N/A   Partly Cloudy
9:15 PM 50.0 °F - 30.2 °F 47% 29.78 in 10.0 mi Calm Calm - N/A   Partly Cloudy
9:35 PM 50.0 °F - 30.2 °F 47% 29.77 in 10.0 mi Calm Calm - N/A   Clear
9:55 PM 51.8 °F - 30.2 °F 44% 29.77 in 10.0 mi Calm Calm - N/A   Clear
10:15 PM 44.6 °F - 32.0 °F 61% 29.77 in 10.0 mi Calm Calm - N/A   Clear
10:35 PM 46.4 °F - 30.2 °F 53% 29.77 in 10.0 mi Calm Calm - N/A   Clear
10:55 PM 44.6 °F - 30.2 °F 57% 29.78 in 10.0 mi Calm Calm - N/A   Clear
11:55 PM 32.0 °F 25.6 °F 32.0 °F 100% 29.81 in 10.0 mi NNW 6.9 mph - N/A   Clear